#timestamp,LO_Frequency,Hit,StdDev 
1675170015.6,286046996.8,N
1675170035.5,286046999.6,N
1675170055.3,286046997.4,N
1675170075.3,286046996.8,N
1675170095.1,286046995.0,N
1675170115.9,286046996.7,N
1675170135.7,286047000.9,N
1675170155.6,286047001.0,N
1675170175.4,286046997.0,N
1675170195.2,286046995.1,N
1675170215.1,286046998.9,N
1675170216.0,286046998.9,N
1675170235.8,286047000.4,N
1675170255.6,286047000.7,N
1675170275.5,286046999.9,N
1675170295.3,286047002.7,N
1675170315.2,286046998.3,N
1675170335.9,286046998.8,N
1675170355.7,286046998.9,N
1675170375.6,286046999.6,N
1675170395.4,286046998.5,N
1675170415.2,286046999.0,N
1675170435.1,286046998.9,N
1675170436.0,286046998.9,N
1675170455.8,286046996.6,N
1675170475.7,286047002.6,N
1675170495.5,286047000.2,N
1675170515.3,286046998.1,N
1675170535.2,286046998.9,N
1675170555.0,286046997.6,N
1675170555.9,286046997.6,N
1675170575.8,286046993.3,Y
1675170595.6,286046997.1,P
1675170615.4,286046996.8,P
1675170635.3,286046995.3,P
1675170655.1,286047001.0,N
1675170675.8,286046999.1,N
1675170695.7,286046997.7,N
1675170715.5,286046999.0,N
1675170735.4,286047003.7,N
1675170755.2,286047003.8,N
1675170775.0,286047002.0,N
1675170775.9,286047002.0,N
1675170795.8,286047002.7,N
1675170815.6,286047002.2,N
1675170835.4,286047004.1,N
1675170855.3,286047000.4,N
1675170875.1,286047001.1,N
1675170895.9,286046998.8,N
1675170915.7,286046996.8,N
1675170935.5,286047000.7,N
1675170955.4,286047000.5,N
1675170975.2,286047002.7,N
1675170995.0,286046998.5,N
1675170995.9,286046998.5,N
1675171015.8,286047001.2,N
1675171035.6,286046999.3,N
1675171055.5,286046998.2,N
1675171075.3,286047001.6,N
1675171095.1,286047005.6,N
1675171115.9,286047003.9,N
1675171135.7,286047002.5,N
1675171155.5,286047001.5,N
1675171175.4,286047003.2,N
1675171195.2,286047004.9,N
1675171215.1,286047005.5,N
1675171216.0,286047005.5,N
1675171235.8,286047003.7,N
1675171255.6,286047001.7,N
1675171275.5,286046998.1,N
1675171295.3,286047000.7,N
1675171315.2,286046998.9,N
1675171335.9,286046997.3,N
1675171355.7,286046995.0,N
1675171375.6,286047001.2,N
1675171395.4,286046998.2,N
1675171415.2,286046996.6,N
1675171435.1,286046995.3,N
1675171436.0,286046995.3,N
1675171455.8,286046999.6,N
1675171475.7,286046998.6,N
1675171495.5,286047001.8,N
1675171515.3,286046999.7,N
1675171535.2,286047001.4,N
1675171555.0,286047001.2,N
1675171575.0,286046998.9,N
1675171575.9,286046998.9,N
1675171595.8,286047002.8,N
1675171615.6,286047002.4,N
1675171635.5,286047000.1,N
1675171655.3,286047002.8,N
1675171675.1,286047002.3,N
1675171695.9,286047001.3,N
1675171715.7,286047005.9,N
1675171735.6,286047006.7,N
1675171755.4,286047002.9,N
1675171775.2,286047003.2,N
1675171795.1,286047002.9,N
1675171796.0,286047002.9,N
1675171815.8,286047003.4,N
1675171835.7,286047004.4,N
1675171855.5,286047003.4,N
1675171875.3,286047004.6,N
1675171895.2,286047005.7,N
1675171915.0,286047003.2,N
1675171915.9,286047003.2,N
1675171935.8,286047004.4,N
1675171955.6,286047002.5,N
1675171975.4,286047002.0,N
1675171995.3,286047002.5,N
1675172015.1,286047000.2,N
1675172035.9,286047000.8,N
1675172055.7,286047001.4,N
1675172075.5,286047004.1,N
1675172095.4,286047007.5,Y
1675172115.2,286047002.6,P
1675172135.0,286046999.9,N
1675172135.9,286046999.9,N
1675172155.8,286047001.3,N
1675172175.6,286047004.0,Y
1675172195.5,286047001.5,P
1675172215.3,286047005.9,P
1675172235.1,286047001.9,N
1675172255.9,286046998.3,N
1675172275.7,286046996.8,N
1675172295.6,286046995.4,N
1675172315.4,286046997.9,N
1675172335.2,286046997.8,N
1675172355.1,286047000.9,N
1675172356.0,286047000.9,N
1675172375.8,286047000.6,N
1675172395.7,286046998.1,N
1675172415.5,286047000.6,N
1675172435.3,286047000.6,N
1675172455.2,286047000.4,N
1675172475.0,286046998.1,N
1675172475.9,286046998.1,N
1675172495.8,286046996.6,N
1675172515.6,286046999.5,N
1675172535.4,286046994.9,N
1675172555.3,286046995.0,N
1675172575.1,286046994.9,N
1675172595.9,286046996.6,N
1675172615.7,286046998.3,N
1675172635.5,286046998.4,N
1675172655.4,286047001.0,N
1675172675.2,286047001.2,N
1675172695.0,286046998.8,N
1675172695.9,286046998.8,N
1675172715.8,286046998.5,N
1675172735.6,286047001.2,N
1675172755.5,286046998.7,N
1675172775.3,286046996.7,N
1675172795.2,286046993.9,Y
1675172815.9,286046997.7,P
1675172835.7,286046996.2,P
1675172855.6,286046996.1,P
1675172875.4,286046995.1,Y
1675172895.3,286046998.4,P
1675172915.1,286046999.0,N
1675172916.0,286046999.0,N
1675172935.8,286046997.0,Y
1675172955.7,286046998.7,P
1675172975.5,286047002.4,P
1675172995.3,286047002.1,N
1675173015.2,286047001.8,N
1675173035.0,286047007.1,Y
1675173035.9,286047007.1,P
1675173055.8,286047007.5,N
1675173075.6,286047004.7,N
1675173095.4,286047005.9,N
1675173115.3,286047002.5,N
1675173135.1,286047000.5,N
1675173155.9,286047002.8,N
1675173175.7,286047001.8,N
1675173195.5,286047003.4,N
1675173215.4,286047001.6,N
1675173235.2,286047001.8,N
1675173255.0,286047000.0,N
1675173255.9,286047000.0,N
1675173275.8,286047001.8,N
1675173295.6,286047005.1,N
1675173315.5,286047008.9,Y
1675173335.3,286047001.4,P
1675173355.1,286047002.6,P
1675173375.9,286046997.4,P
1675173395.7,286046998.9,N
1675173415.5,286046996.7,N
1675173435.4,286046998.0,N
1675173455.2,286047002.8,N
1675173475.1,286046999.9,N
1675173476.0,286046999.9,N
1675173495.8,286047002.5,N
1675173515.6,286047004.0,N
1675173535.5,286047004.0,N
1675173555.3,286047004.4,N
1675173575.1,286047001.8,N
1675173595.9,286047000.0,N
